Regional Weather Roundup
Issued by NWS Binghamton, NY

Home | Current Version | Previous Version | Text Only | Print | Product List | Glossary On
Versions: 1 2 3 4 5 6 7 8 9 10 11 12 13 14 15 16 17 18 19 20 21 22 23 24 25 26 27
000
ASUS41 KBGM 310610
RWRBGM

REGIONAL WEATHER ROUNDUP
NATIONAL WEATHER SERVICE BINGHAMTON NY
200 AM EDT SAT JUL 31 2021

Note: "fair" indicates few or no clouds below 12,000 feet with no
significant weather and/or obstructions to visibility.

* = Station(s) that does not report precipitation, such as rain,
snow, etc, also no thunder or fog.

NYZ009-015>018-022>025-036-037-044>046-055>057-062-310700
...Central New York...

CITY           SKY/WX    TMP DP  RH WIND       PRES   REMARKS
Binghamton     CLEAR     51  48  89 W7        30.01S
Cortland       MOCLDY    50  48  93 CALM      30.03R
Dansville      CLEAR     52  49  89 SE5       30.06R
Elmira         CLEAR     54  50  86 W6        30.03S
Endicott       FAIR      50  50 100 S5        30.02
Ithaca         MOCLDY    52  51  97 CALM      30.03R
Monticello     CLEAR     51  48  89 NW7       30.01F
Norwich        MOCLDY    48  48 100 CALM      30.01
Oneonta        FAIR      52  48  87 CALM      30.01
Penn Yan       PTCLDY    56  49  77 W7        30.03S
Rome           CLOUDY    56  45  66 NW5       30.00R
Seneca Falls   CLOUDY    57  52  82 CALM      30.02
Sidney         FAIR      48  48 100 W5        30.01
Skaneateles    CLOUDY    57  50  77 VRB3      30.02S
Syracuse       CLOUDY    60  45  57 CALM      30.00S
$$

PAZ038>040-043-044-047-048-072-310700
...Northeast Pennsylvania...

CITY           SKY/WX    TMP DP  RH WIND       PRES   REMARKS
Scranton       CLEAR     55  51  86 CALM      30.02F
Towanda        CLEAR     54  54 100 SW3       30.06S
$$
&&
KEY
WCI = Wind Chill Index
VSB = Visibility
HX  = Heat Index
$$



USA.gov is the U.S. government's official web portal to all federal, state and local government web resources and services.